Location: *
(49.9853°N, 3.5569°E)
Time: 14:30:55
(UTC+00:00)

Daily predictions for brighter satellites

Satellite Brightness Start Highest point End
(mag) Time Altitude Azimuth Time Altitude Azimuth Time Altitude Azimuth
Timation 2 Rocket 4.1 18:06:40 10° SSW 18:13:14 89° ESE 18:19:32 10° NNE
CZ-4 R/B 2.1 18:10:47 10° S 18:14:39 58° W 18:18:37 10° NNW
SJ-6B 4.3 18:12:33 10° ESE 18:15:37 21° ENE 18:18:40 10° NNE
Cosmos 2219 3.8 18:10:28 10° S 18:15:41 37° ESE 18:20:55 10° NE
Meteor 2-9 Rocket 4.3 18:11:02 10° S 18:16:45 84° E 18:22:22 10° NNE
Envisat 4.0 18:11:50 10° S 18:16:48 54° W 18:21:49 10° NNW
Cosmos 2297 Rocket 3.1 18:15:39 10° SSE 18:20:14 26° ESE 18:24:49 10° NE
Aureole 1 Rocket 4.4 18:20:25 10° NNW 18:25:14 44° WSW 18:28:57 10° S
Cosmos 2074 Rocket 4.4 18:19:26 10° NNW 18:25:40 70° W 18:31:49 10° S
USA 116 3.6 18:24:32 10° NNE 18:28:27 82° WNW 18:31:55 10° SSW
Lacrosse 5 rocket 2.3 18:31:26 10° S 18:34:21 23° SE 18:37:12 11° ENE
MOS 1 4.4 18:29:41 10° SE 18:35:16 59° ENE 18:40:51 10° N
In-Cosmos 22 4.3 18:30:35 10° N 18:35:52 52° ENE 18:41:12 10° SSE
Okean 1 Rocket 3.0 18:31:57 10° S 18:36:17 79° E 18:40:41 10° NNE
GENESIS II 4.3 18:32:33 10° NW 18:36:41 74° NE 18:40:45 10° SE
Cosmos 405 Rocket 3.5 18:34:04 10° SSE 18:37:15 28° E 18:40:30 10° NNE
Cosmos 1461 3.8 18:33:57 10° WSW 18:37:48 47° NW 18:41:40 10° NNE
Cosmos 1025 Rocket 4.4 18:34:04 10° NNW 18:38:07 43° W 18:42:08 10° SSW
Cosmos 2341 Rocket 4.1 18:32:24 10° N 18:38:36 59° ENE 18:44:42 10° SSE
Cosmos 1190 Rocket 4.0 18:35:14 10° NNW 18:40:34 75° ENE 18:45:49 10° SSE
Cosmos 1939 Rocket 2.8 18:37:18 10° SSE 18:41:09 85° WSW 18:45:03 10° NNW
H-2A R/B 2.7 18:40:29 10° SE 18:44:54 33° ENE 18:49:27 10° N
Cosmos 1437 Rocket 3.7 18:42:40 10° N 18:45:59 27° ENE 18:48:19 15° ESE
Cosmos 1674 3.8 18:43:19 10° NNE 18:46:24 24° ENE 18:48:20 16° ESE
Cosmos 614 Rocket 4.0 18:41:28 10° NNW 18:46:44 88° ENE 18:51:55 10° SSE
Cosmos 2237 Rocket 2.3 18:43:28 10° NNW 18:49:12 83° WSW 18:54:54 10° SSE
Cosmos 2333 Rocket 3.8 18:44:13 10° NW 18:49:23 36° WSW 18:54:33 10° S
NOSS 3-4 (A) 4.5 18:42:43 10° NW 18:49:32 58° SW 18:56:59 10° SSE
NOSS 3-4 (C) 4.4 18:42:49 10° NW 18:49:38 58° SW 18:57:05 10° SSE
Cosmos 1441 Rocket 3.7 18:46:28 10° SSW 18:50:12 61° WNW 18:53:57 10° N
Meteor 1-15 Rocket 4.4 18:44:50 10° S 18:50:29 56° E 18:56:14 10° NNE
Cosmos 2366 rocket 4.4 18:45:11 10° N 18:51:16 44° ENE 18:57:17 10° SE
Cosmos 2218 Rocket 4.3 18:45:59 10° N 18:52:09 47° ENE 18:58:11 10° SE
ADEOS Rocket 4.1 18:45:37 10° NNE 18:52:16 34° E 18:59:06 10° SSE
Cosmos 2154 Rocket 4.3 18:47:41 10° NNW 18:53:52 71° W 19:00:03 10° S
Meteor 1-24 Rocket 4.3 18:52:49 10° N 18:58:19 42° ENE 19:03:14 13° SE
Ariane Rocket 3.5 18:54:02 10° S 18:59:03 63° WSW 19:04:07 10° NNW
Cosmos 1980 4.1 18:53:43 10° NNW 18:59:20 67° WSW 19:04:55 10° SSE
SL-8 Rocket 4.0 18:53:33 10° N 18:59:41 60° ENE 19:05:46 10° SSE
Cosmos 389 Rocket 2.5 18:56:48 10° NNW 19:00:14 76° W 19:03:40 10° S
HJ-1C 3.8 18:57:17 10° S 19:00:38 64° W 19:04:01 10° NNW
FREGAT/IRIS 2.3 18:58:08 10° SSE 19:00:56 89° ENE 19:03:46 10° NNW
GP-B 3.9 18:56:56 10° N 19:01:17 54° W 19:05:37 10° SSW
CZ-2C R/B 3.8 19:00:04 10° NNE 19:04:25 49° E 19:08:43 10° S
Resurs 01 Rocket 2.7 19:02:49 20° E 19:04:40 27° ENE 19:08:25 10° N
SJ-11-01 4.2 19:00:28 10° SSE 19:05:13 78° ENE 19:09:59 10° NNW
EO 1 Delta rocket 4.2 18:59:48 10° SSE 19:06:06 85° ENE 19:11:12 10° N
Cosmos 1892 Rocket 3.5 19:03:20 10° N 19:07:49 86° E 19:12:14 10° S
Cosmos 407 Rocket 4.0 19:03:33 10° NNW 19:08:37 61° WSW 19:13:38 10° S
Cosmos 1805 4.0 19:06:58 20° SE 19:08:51 30° E 19:12:18 10° NNE
SAR-Lupe-2 3.4 19:06:32 10° NNE 19:10:08 72° ESE 19:13:41 10° S
USA 234 3.8 19:03:52 10° ENE 19:10:16 58° NNW 19:16:41 10° W
Cosmos 1959 Rocket 4.5 19:05:49 10° N 19:11:54 61° ENE 19:18:01 10° SSE
Cosmos 2056 Rocket 3.5 19:08:49 10° SSW 19:14:13 74° ESE 19:19:38 10° NNE
ASTEX 1 3.3 19:09:58 10° N 19:14:54 90° NNE 19:19:48 10° S
Cosmos 1707 4.3 19:13:27 10° NNW 19:17:07 38° W 19:20:46 10° SSW
Cosmos 1420 Rocket 4.5 19:12:23 10° S 19:17:15 38° ESE 19:22:09 10° NE
CZ-4C R/B 4.2 19:13:01 10° NW 19:18:06 25° N 19:23:56 10° ENE
KORONAS-FOTON 4.0 19:17:30 10° N 19:21:12 49° ENE 19:22:29 33° SE
SL-16 R/B 2.2 19:16:32 10° NNW 19:22:15 75° ENE 19:26:04 22° SE
CZ-2C R/B 4.5 19:19:16 10° NE 19:21:05 14° ENE 19:21:05 14° ENE
Cosmos 1140 Rocket 3.8 19:19:28 10° NNW 19:24:37 66° WSW 19:29:42 10° S
Cosmos 1624 Rocket 3.9 19:20:17 10° SSW 19:25:29 89° WNW 19:30:43 10° NNE
ISS -3.7 19:23:07 10° SW 19:26:24 57° SSE 19:26:55 49° ESE
ERBS 2.5 19:23:09 10° WNW 19:26:31 63° SW 19:27:33 39° SSE
RESURS DK-1 2.9 19:22:44 10° NNW 19:26:42 42° NE 19:27:47 34° E
SL-8 R/B 3.7 19:23:14 10° W 19:28:01 73° S 19:30:07 33° ESE
Cosmos 1741 Rocket 4.3 19:23:44 10° NNW 19:28:56 49° ENE 19:31:10 31° ESE
SL-08 RB Rocket 3.9 19:26:58 29° SE 19:29:07 52° ENE 19:33:40 10° N
Cosmos 1626 3.7 19:26:42 10° NNE 19:28:57 21° NE 19:28:57 21° NE
Okean 1-7 Rocket 4.2 19:25:32 10° NNW 19:29:54 57° W 19:34:18 10° S
Cosmos 2084 Rocket 3.4 19:26:22 10° SW 19:30:50 80° SE 19:35:19 10° NE
Cosmos 1954 Rocket 4.1 19:26:48 10° NNW 19:32:02 75° WSW 19:36:06 17° SSE
Meteor 2-5 Rocket 3.8 19:27:09 10° NNW 19:33:01 86° W 19:38:57 10° S
GEOS 3 Rocket 4.2 19:30:05 16° SSE 19:34:05 52° SW 19:39:06 10° NW
Spot 2 Rocket 4.2 19:34:39 31° E 19:35:48 35° ENE 19:40:21 10° N
Cosmos 1733 4.3 19:39:11 29° NE 19:39:11 29° NE 19:41:30 10° NNE
Cosmos 2082 3.7 19:33:19 10° SSW 19:38:56 61° ESE 19:44:35 10° NE
USA 186 3.0 19:36:55 13° S 19:39:48 44° W 19:43:07 10° NNW
Meteor 1-4 Rocket 4.1 19:37:27 10° NNW 19:40:40 33° W 19:43:50 10° SSW
Meteor 1-22 Rocket 4.4 19:35:10 10° S 19:41:09 62° E 19:47:10 10° NNE
Terra 4.0 19:42:20 11° NE 19:42:20 11° NE 19:43:44 10° NNE
ARGOS 3.1 19:39:17 19° SSE 19:43:15 90° E 19:48:42 10° NNW
Cosmos 1544 Rocket 3.6 19:44:06 10° S 19:48:34 83° W 19:53:04 10° N
Cosmos 1455 Rocket 3.4 19:44:18 10° SSW 19:48:43 69° WNW 19:53:12 10° N
SL-14 R/B 3.8 19:45:31 10° N 19:48:59 42° ENE 19:48:59 42° ENE
SJ-6B 3.8 19:46:28 13° S 19:50:00 47° W 19:53:57 10° NNW
Cosmos 2227 Rocket 2.3 19:47:58 10° SW 19:53:38 75° WNW 19:59:21 10° NNE
SPOT 3 Rocket 4.2 19:50:01 10° S 19:55:01 53° W 20:00:05 10° NNW
DMSP B5D2-2 4.5 19:51:17 10° NNE 19:56:01 41° E 19:56:01 41° E
Cosmos 1766 3.3 19:54:23 20° SSW 19:57:01 77° W 20:00:57 10° N
MetOp-A 4.0 19:55:16 36° SSE 19:57:33 81° ENE 20:02:57 10° NNW
CZ-2C R/B 3.1 19:55:55 36° SSE 19:58:12 80° ENE 20:03:50 10° NNW
Cosmos 2219 4.3 19:54:15 10° SW 19:59:46 46° NW 20:05:18 10° NNE
Cosmos 2297 Rocket 2.7 19:58:16 10° SW 20:03:52 62° WNW 20:09:30 10° NNE
Cosmos 1626 Rocket 3.7 20:01:34 10° NNW 20:05:53 68° W 20:07:10 43° SSW
Cosmos 1452 Rocket 3.3 20:03:07 10° SSW 20:08:22 80° ESE 20:13:38 10° NNE
Cosmos 1825 Rocket 4.3 20:08:55 10° N 20:12:10 40° NE 20:12:10 40° NE
Lacrosse 5 rocket 1.4 20:09:30 10° WSW 20:12:54 64° WNW 20:12:54 64° WNW
USA 245 4.5 20:14:09 50° E 20:14:48 52° ENE 20:20:03 10° N
Cosmos 1674 4.4 20:18:42 10° NNW 20:21:58 29° W 20:23:12 23° SW
Cosmos 1943 3.4 20:16:28 10° NNW 20:22:05 54° NE 20:22:30 52° ENE
H-2A R/B 3.2 20:21:02 18° SSW 20:24:16 39° W 20:29:02 10° NNW
Cosmos 1758 Rocket 4.1 20:20:00 10° N 20:23:21 49° NNE 20:23:21 49° NNE
Cosmos 1602 Rocket 4.2 20:23:40 10° NNW 20:27:53 50° W 20:28:32 45° SW
Nadezhda 3 Rocket 3.8 20:30:13 54° S 20:31:43 79° E 20:37:58 10° NNE
ADEOS Rocket 3.9 20:30:49 10° N 20:38:06 66° WNW 20:45:46 10° SSW
Resurs 01 Rocket 2.7 20:40:24 38° WSW 20:41:00 40° W 20:45:13 10° NNW
Meteor 1-21 Rocket 4.2 20:35:11 10° NNW 20:41:08 84° E 20:41:30 78° SE
Cosmos 1605 Rocket 4.3 20:35:38 10° N 20:41:34 50° ENE 20:41:34 50° ENE
Cosmos 1821 Rocket 4.0 20:38:19 10° NNW 20:44:29 76° W 20:45:40 58° SSW
Cosmos 1535 Rocket 4.3 20:44:31 10° N 20:50:58 83° E 20:51:16 80° SE
USA 234 3.9 20:49:56 31° ENE 20:52:45 49° N 20:59:00 10° WNW
ERS-1 Rocket 3.6 21:00:53 52° N 21:00:53 52° N 21:04:42 10° NNW
Cosmos 1603 3.9 20:56:20 10° NNW 21:01:45 65° W 21:01:45 65° W
CZ-2C R/B 3.0 20:58:02 10° NNE 21:02:35 60° NNE 21:02:35 60° NNE
SPOT 5 3.8 21:05:27 43° N 21:05:27 43° N 21:08:58 10° N
RESURS DK-1 4.4 21:01:09 10° NW 21:03:41 23° W 21:03:41 23° W
Cosmos 1626 4.5 21:01:38 10° NNW 21:03:30 23° NW 21:03:30 23° NW
SL-16 R/B 4.2 21:01:39 10° NW 21:05:46 21° W 21:07:58 17° SW
CZ-4C R/B 3.6 21:02:09 10° NW 21:08:26 41° NNE 21:09:50 37° NE
Terra 3.3 21:21:13 31° N 21:21:13 31° N 21:23:47 10° N
SPOT 1/Viking Rocket 4.4 21:25:03 48° NW 21:25:03 48° NW 21:28:53 10° NNW
Cosmos 2082 Rocket 4.5 21:32:22 10° N 21:35:25 14° NNE 21:36:23 14° NE
Cosmos 2263 Rocket 3.9 22:00:09 26° NNE 22:00:09 26° NNE 22:02:35 10° NNE
USA 234 4.0 22:37:18 47° NW 22:37:18 47° NW 22:41:52 10° WNW
CZ-4C R/B 3.7 22:50:36 10° NW 22:55:00 44° NW 22:55:00 44° NW
Cosmos 2082 Rocket 4.1 23:15:34 10° NNW 23:18:12 26° N 23:18:12 26° N
Cosmos 2263 Rocket 4.4 23:41:48 19° NW 23:41:55 19° NW 23:45:51 10° N
